Location: Goettingen
(51.5300°N, 9.9433°E)
Time: 02:36:40
(UTC+02:00)

ISS - Pass Details

Date: 23 September 2018
Orbit: 402 x 408 km, 51.6° (Epoch: 20 September)

Event Time Altitude Azimuth Distance (km) Brightness Sun altitude
Rises 21:07:53 0° 225° (SW) 2,323 0.3 -17.7°
Reaches altitude 10° 21:10:05 10° 216° (SW) 1,465 -0.9 -18.0°
Enters shadow 21:11:54 24° 190° (S) 881 -2.3 -18.3°
